SV1BYK-4 Weather Reports


Display with metric or nautical units.
time (UTC)temp
F
wind
direction
speed
MPH
gust
MPH
rain 1hr
in
rain 24hr
in
rain mn
in
humidity
%
barometer
mb
20260831051211 81 316 2.0 4.0 0.00 0.00 0.00 50 993.0
20260831050311 80 263 2.0 4.0 0.00 0.00 0.00 50 992.8
20260831045411 79 249 2.0 4.0 0.00 0.00 0.00 49 992.7
20260831044511 79 243 1.0 4.0 0.00 0.00 0.00 49 992.7
20260831043611 79 259 1.0 2.0 0.00 0.00 0.00 49 992.7
20260831040010 78 262 2.0 4.0 0.00 0.00 0.00 49 992.4
20260831034210 79 269 1.0 4.0 0.00 0.00 0.00 48 992.4
20260831033311 78 276 1.0 4.0 0.00 0.00 0.00 49 992.4
20260831032411 78 292 1.0 2.0 0.00 0.00 0.00 49 992.5
20260831031511 78 311 0.0 8.0 0.00 0.00 0.00 50 992.4
20260831030611 78 308 2.0 7.0 0.00 0.00 0.00 49 992.4
20260831023910 79 186 1.0 2.0 0.00 0.00 0.00 49 992.3
20260831023011 79 123 1.0 2.0 0.00 0.00 0.00 49 992.4
20260831015411 79 224 1.0 2.0 0.00 0.00 0.00 49 992.2
20260831014510 79 274 1.0 4.0 0.00 0.00 0.00 49 992.2
20260831012710 79 301 2.0 7.0 0.00 0.00 0.00 51 992.2
20260831011811 79 310 1.0 4.0 0.00 0.00 0.00 52 992.1
20260831010910 79 314 1.0 4.0 0.00 0.00 0.00 52 992.3
20260831010011 79 314 2.0 4.0 0.00 0.00 0.00 52 992.3
20260831005111 79 291 2.0 4.0 0.00 0.00 0.00 52 992.3
20260831004211 79 261 1.0 2.0 0.00 0.00 0.00 52 992.4
20260831002411 80 202 1.0 2.0 0.00 0.00 0.00 51 992.3
20260831001511 80 241 1.0 2.0 0.00 0.00 0.00 52 992.4
20260830235711 80 248 0.0 2.0 0.00 0.00 0.00 51 992.4
20260830234810 80 248 0.0 2.0 0.00 0.00 0.00 51 992.4
20260830233911 80 248 0.0 2.0 0.00 0.00 0.00 51 992.5
20260830233011 80 245 0.0 4.0 0.00 0.00 0.00 51 992.4
20260830232111 80 243 1.0 4.0 0.00 0.00 0.00 50 992.5
20260830231211 80 244 0.0 4.0 0.00 0.00 0.00 50 992.5
20260830230311 80 316 2.0 4.0 0.00 0.00 0.00 50 992.6
20260830224511 81 249 0.0 2.0 0.00 0.00 0.00 48 992.5
20260830222710 81 294 1.0 2.0 0.00 0.00 0.00 47 992.7
20260830220910 81 296 0.0 4.0 0.00 0.00 0.00 49 992.7
20260830220011 80 292 0.0 2.0 0.00 0.00 0.00 50 992.7
20260830215111 81 284 0.0 4.0 0.00 0.00 0.00 50 992.7
20260830214211 81 270 2.0 4.0 0.00 0.00 0.00 52 992.8
20260830213312 81 270 0.0 2.0 0.00 0.00 0.00 51 992.7
20260830212411 81 270 0.0 2.0 0.00 0.00 0.00 49 992.7
20260830205710 82 318 0.0 2.0 0.00 0.00 0.00 45 992.4
20260830204811 82 295 0.0 4.0 0.00 0.00 0.00 44 992.5
20260830203911 82 291 0.0 4.0 0.00 0.00 0.00 44 992.5
20260830203011 82 263 2.0 4.0 0.00 0.00 0.00 44 992.4
20260830202111 82 242 0.0 4.0 0.00 0.00 0.00 44 992.4
20260830201211 82 225 0.0 2.0 0.00 0.00 0.00 44 992.3
20260830200311 82 194 0.0 2.0 0.00 0.00 0.00 44 992.3
20260830195411 82 212 1.0 2.0 0.00 0.00 0.00 44 992.2
20260830194510 82 268 0.0 2.0 0.00 0.00 0.00 44 992.2
20260830193610 82 293 1.0 2.0 0.00 0.00 0.00 45 992.1
20260830192711 82 311 0.0 2.0 0.00 0.00 0.00 47 992.2
20260830190911 82 313 0.0 6.0 0.00 0.00 0.00 46 992.0
20260830190011 83 302 2.0 6.0 0.00 0.00 0.00 46 992.1
20260830185110 83 314 1.0 7.0 0.00 0.00 0.00 48 992.0
20260830184211 82 274 2.0 4.0 0.00 0.00 0.00 56 991.9
20260830183311 82 226 2.0 4.0 0.00 0.00 0.00 60 991.7
20260830182411 82 98 1.0 4.0 0.00 0.00 0.00 62 991.6
20260830181510 82 101 2.0 4.0 0.00 0.00 0.00 62 991.7
20260830180611 83 104 2.0 4.0 0.00 0.00 0.00 61 991.6
20260830175711 83 103 2.0 4.0 0.00 0.00 0.00 60 991.3
20260830174811 83 106 2.0 4.0 0.00 0.00 0.00 60 991.2
20260830173910 83 221 1.0 6.0 0.00 0.00 0.00 61 991.1
20260830172111 82 273 2.0 7.0 0.00 0.00 0.00 63 990.8
20260830171210 83 261 4.0 7.0 0.00 0.00 0.00 62 990.8
20260830170311 83 250 2.0 9.0 0.00 0.00 0.00 61 990.9
20260830165410 83 270 4.0 9.0 0.00 0.00 0.00 59 991.0
20260830164510 84 270 3.0 6.0 0.00 0.00 0.00 59 991.0
20260830162711 84 270 4.0 9.0 0.00 0.00 0.00 57 991.0
20260830161811 85 270 3.0 8.0 0.00 0.00 0.00 57 991.1
20260830160010 87 275 3.0 7.0 0.00 0.00 0.00 50 991.1
20260830155111 87 99 2.0 8.0 0.00 0.00 0.00 51 990.9
20260830154211 87 113 3.0 7.0 0.00 0.00 0.00 50 991.0
20260830152411 88 159 4.0 6.0 0.00 0.00 0.00 48 991.0
20260830151511 89 278 2.0 8.0 0.00 0.00 0.00 47 991.0
20260830150610 89 255 2.0 8.0 0.00 0.00 0.00 47 990.9
20260830145710 90 232 2.0 8.0 0.00 0.00 0.00 47 990.9
20260830143910 88 260 4.0 8.0 0.00 0.00 0.00 46 990.9
20260830141211 90 114 2.0 4.0 0.00 0.00 0.00 46 990.9
20260830140311 90 255 2.0 9.0 0.00 0.00 0.00 42 991.1
20260830135410 90 153 2.0 7.0 0.00 0.00 0.00 40 991.0
20260830134511 91 117 2.0 6.0 0.00 0.00 0.00 39 991.0
20260830132711 89 104 2.0 7.0 0.00 0.00 0.00 41 991.0
20260830131810 90 168 2.0 4.0 0.00 0.00 0.00 39 991.0
20260830130911 90 185 2.0 6.0 0.00 0.00 0.00 38 990.9
20260830130011 91 90 2.0 6.0 0.00 0.00 0.00 37 991.0
20260830125110 91 130 3.0 8.0 0.00 0.00 0.00 37 990.9
20260830124211 92 233 3.0 7.0 0.00 0.00 0.00 35 991.0
20260830123310 92 157 2.0 7.0 0.00 0.00 0.00 35 991.0
20260830122411 93 101 2.0 8.0 0.00 0.00 0.00 35 991.2
20260830121510 92 98 2.0 9.0 0.00 0.00 0.00 34 991.3
20260830120611 92 109 2.0 8.0 0.00 0.00 0.00 34 991.4
20260830114810 93 144 2.0 7.0 0.00 0.00 0.00 33 991.5
20260830113911 92 106 2.0 7.0 0.00 0.00 0.00 33 991.5
20260830112111 91 99 4.0 9.0 0.00 0.00 0.00 34 991.6
20260830111211 90 95 5.0 9.0 0.00 0.00 0.00 35 991.7
20260830110310 91 107 3.0 8.0 0.00 0.00 0.00 35 991.8
20260830105410 91 97 3.0 8.0 0.00 0.00 0.00 36 991.8
20260830104510 91 159 4.0 8.0 0.00 0.00 0.00 36 991.9
20260830103610 91 107 4.0 8.0 0.00 0.00 0.00 37 991.8
20260830102710 90 195 5.0 11.0 0.00 0.00 0.00 37 991.9
20260830101810 91 110 2.0 8.0 0.00 0.00 0.00 36 991.8
20260830100911 93 123 2.0 6.0 0.00 0.00 0.00 35 992.0
20260830100010 94 319 1.0 4.0 0.00 0.00 0.00 31 992.0
20260830095111 95 126 2.0 4.0 0.00 0.00 0.00 31 991.8
20260830094210 93 319 0.0 4.0 0.00 0.00 0.00 31 992.0
20260830093311 92 100 0.0 8.0 0.00 0.00 0.00 32 992.1
20260830092410 92 90 3.0 4.0 0.00 0.00 0.00 32 992.1
20260830091511 92 290 1.0 6.0 0.00 0.00 0.00 33 992.2
20260830085710 92 248 1.0 4.0 0.00 0.00 0.00 33 992.5
20260830084811 89 305 2.0 11.0 0.00 0.00 0.00 36 992.6
20260830083911 89 298 1.0 4.0 0.00 0.00 0.00 35 992.7
20260830083010 89 296 2.0 4.0 0.00 0.00 0.00 35 992.7
20260830082111 89 242 0.0 4.0 0.00 0.00 0.00 34 992.7
20260830081210 88 155 2.0 4.0 0.00 0.00 0.00 34 992.7
20260830080311 89 260 1.0 6.0 0.00 0.00 0.00 34 992.8
20260830075410 87 291 0.0 6.0 0.00 0.00 0.00 37 992.8
20260830074511 88 300 2.0 4.0 0.00 0.00 0.00 36 992.7
20260830073610 86 278 2.0 4.0 0.00 0.00 0.00 38 992.7
20260830072710 86 238 1.0 4.0 0.00 0.00 0.00 38 992.7
20260830071810 86 272 2.0 2.0 0.00 0.00 0.00 37 992.6
20260830070910 85 271 1.0 4.0 0.00 0.00 0.00 39 992.6
20260830065110 86 176 1.0 2.0 0.00 0.00 0.00 39 992.4
20260830064210 86 65 0.0 2.0 0.00 0.00 0.00 39 992.3
20260830063311 85 118 1.0 4.0 0.00 0.00 0.00 39 992.2
20260830061510 84 90 0.0 4.0 0.00 0.00 0.00 40 992.2
20260830060610 83 331 0.0 2.0 0.00 0.00 0.00 42 992.2
20260830055710 82 300 0.0 2.0 0.00 0.00 0.00 43 992.2
20260830054810 81 314 1.0 2.0 0.00 0.00 0.00 44 992.2
20260830053911 81 314 1.0 2.0 0.00 0.00 0.00 44 992.2